Location: eljas
(40.1958°N, 6.8661°W)
Time: 00:09:02
(UTC+01:00)

Amateur Radio Satellites - All Passes

Search period start: 20 November 2017 23:39
Search period end: 21 November 2017 23:39
Location: eljas, 40.1958°N, 6.8661°W

Satellite Date Start Highest point End Downlink Frequencies (MHz)
Time Altitude Azimuth
NO-84 20 Nov 23:40:40 23:44:55 67° 40° (NE) 23:49:08 435.350 FM
FO-29 20 Nov 23:48:56 23:54:55 25° 301° (WNW) 00:00:44 435.910
AIST 2D 20 Nov 23:53:55 23:56:21 17° 94° (E) 23:58:47 435.315
SPROUT 20 Nov 23:58:16 00:00:49 16° 65° (ENE) 00:03:23 437.525
ESTCUBE 1 21 Nov 00:05:49 00:10:17 80° 76° (ENE) 00:14:47 437.505/2401.250
nSIGHT-1 21 Nov 00:29:20 00:31:13 14° 345° (NNW) 00:33:05 .
VELOX 1 21 Nov 00:30:27 00:33:56 23° 67° (ENE) 00:37:28 145.980
PRISM 21 Nov 00:43:45 00:47:30 33° 290° (WNW) 00:51:12 437.425
LO-87 21 Nov 00:52:26 00:54:49 17° 266° (W) 00:57:13 145.935 - 145.965
RS-15 21 Nov 00:52:48 01:01:21 21° 357° (N) 01:09:42 29.354- 29.394
DUCHIFAT 1 21 Nov 00:56:58 01:00:28 26° 96° (E) 01:03:56 145.980
SO-50 21 Nov 00:58:40 01:01:17 15° 319° (NW) 01:03:56 436.795
EO-79 21 Nov 01:03:06 01:07:03 40° 98° (E) 01:10:58 145.935-145.965
NANOSAT C BR1 21 Nov 01:06:49 01:10:45 38° 98° (E) 01:14:38 145.865
PCSat 21 Nov 01:11:08 01:16:11 41° 111° (ESE) 01:21:15 145.827
ISS 21 Nov 01:11:58 01:13:24 12° 352° (N) 01:14:50 437.550
O/OREOS (USA 219) 21 Nov 01:15:44 01:20:06 47° 253° (WSW) 01:24:25 437.305
POLYITAN 1 21 Nov 01:18:05 01:22:14 60° 101° (E) 01:26:22 437.675
DX 1 21 Nov 01:18:42 01:21:38 18° 65° (ENE) 01:24:34 434.975-435.025
50 SAT 21 Nov 01:19:07 01:20:48 14° 67° (ENE) 01:22:28 437.505
NO-84 21 Nov 01:19:08 01:21:52 17° 237° (WSW) 01:24:33 435.350 FM
AIST 2D 21 Nov 01:26:33 01:29:29 25° 289° (WNW) 01:32:25 435.315
SPROUT 21 Nov 01:32:11 01:36:19 46° 261° (W) 01:40:27 437.525
QB50P2 21 Nov 01:41:21 01:45:31 63° 286° (WNW) 01:49:39 145.880/145.840
BUGSAT 1 21 Nov 01:52:13 01:55:33 25° 96° (E) 01:58:51 437.445
UKube-1 21 Nov 02:01:07 02:04:54 31° 69° (ENE) 02:08:43 .
VELOX 1 21 Nov 02:06:14 02:10:12 32° 263° (W) 02:14:12 145.980
nSIGHT-1 21 Nov 02:07:26 02:08:32 11° 6° (N) 02:09:36 .
DUCHIFAT 1 21 Nov 02:32:37 02:36:01 25° 291° (WNW) 02:39:24 145.980
EO-79 21 Nov 02:39:46 02:42:29 17° 294° (WNW) 02:45:10 145.935-145.965
NANOSAT C BR1 21 Nov 02:43:23 02:46:08 17° 294° (WNW) 02:48:53 145.865
BEESAT 21 Nov 02:43:41 02:46:09 14° 62° (ENE) 02:48:36 436.000
Oscar 19 21 Nov 02:49:05 02:54:10 56° 101° (E) 02:59:14 437.125/150
ISS 21 Nov 02:49:13 02:50:59 14° 12° (NNE) 02:52:44 437.550
50 SAT 21 Nov 02:49:48 02:52:37 28° 263° (W) 02:55:28 437.505
ITUPSAT 1 21 Nov 02:52:19 02:55:21 17° 63° (ENE) 02:58:22 437.325
DX 1 21 Nov 02:53:20 02:57:28 42° 261° (W) 03:01:38 434.975-435.025
PCSat 21 Nov 02:54:59 02:59:40 29° 309° (NW) 03:04:23 145.827
POLYITAN 1 21 Nov 02:55:56 02:57:28 12° 297° (WNW) 02:59:00 437.675
RS-15 21 Nov 03:08:47 03:19:14 32° 32° (NNE) 03:29:11 29.354- 29.394
MOZHAYETS 4 21 Nov 03:09:10 03:13:06 29° 69° (ENE) 03:17:03
Gurwin Techsat 1B 21 Nov 03:09:35 03:14:52 63° 101° (ESE) 03:20:08 435.225
M-CUBED/EXP-1 PRIME 21 Nov 03:10:29 03:12:51 14° 96° (E) 03:15:13 437.505
BUGSAT 1 21 Nov 03:27:34 03:30:48 24° 292° (WNW) 03:34:01 437.445
UKube-1 21 Nov 03:37:32 03:40:55 22° 265° (W) 03:44:20 .
nSIGHT-1 21 Nov 03:42:54 03:45:38 25° 25° (NNE) 03:48:20 .
BEESAT 2 21 Nov 03:57:44 04:00:12 16° 110° (ESE) 04:02:42 435.950
BEESAT 21 Nov 04:18:36 04:23:21 65° 258° (WSW) 04:28:07 436.000
BEESAT 3 21 Nov 04:23:15 04:27:13 71° 303° (WNW) 04:31:14 437.485
AO-7 21 Nov 04:23:48 04:31:37 42° 100° (E) 04:39:22 .
ISS 21 Nov 04:24:59 04:28:07 43° 31° (NNE) 04:31:14 437.550
ITUPSAT 1 21 Nov 04:28:03 04:32:43 53° 259° (W) 04:37:24 437.325
Oscar 19 21 Nov 04:29:35 04:33:01 18° 297° (WNW) 04:36:28 437.125/150
AO-85 21 Nov 04:35:09 04:37:13 14° 109° (ESE) 04:39:18 145.980
ITAMSAT 1 21 Nov 04:40:34 04:45:22 36° 98° (E) 04:50:07 435.822/435.867
M-CUBED/EXP-1 PRIME 21 Nov 04:42:59 04:47:29 62° 291° (WNW) 04:52:03 437.505
MOZHAYETS 4 21 Nov 04:46:25 04:50:12 26° 265° (W) 04:54:02
Gurwin Techsat 1B 21 Nov 04:50:52 04:54:17 17° 298° (WNW) 04:57:40 435.225
CUBESAT XI-V 21 Nov 04:55:32 05:00:07 88° 73° (ENE) 05:04:45 437.345
KKS-1 21 Nov 05:04:52 05:08:36 26° 68° (ENE) 05:12:20 437.445
nSIGHT-1 21 Nov 05:18:55 05:21:58 42° 223° (SW) 05:24:59 .
RS-15 21 Nov 05:21:32 05:33:27 90° 42° (NE) 05:44:41 29.354- 29.394
STARS 21 Nov 05:30:59 05:34:13 20° 66° (ENE) 05:37:28 437.465
DOVE 4 21 Nov 05:31:11 05:35:01 21° 91° (E) 05:38:42 437.250
BEESAT 2 21 Nov 05:33:42 05:37:33 44° 306° (NW) 05:41:27 435.950
ISS 21 Nov 06:01:55 06:04:23 20° 228° (SW) 06:06:52 437.550
SO-50 21 Nov 06:10:07 06:10:32 10° 35° (NE) 06:10:58 436.795
AO-85 21 Nov 06:13:24 06:17:08 45° 307° (NW) 06:21:02 145.980
AO-7 21 Nov 06:16:34 06:24:20 45° 298° (WNW) 06:32:06 .
ITAMSAT 1 21 Nov 06:20:18 06:24:39 27° 294° (WNW) 06:28:59 435.822/435.867
XW-2C 21 Nov 06:31:07 06:32:50 13° 92° (E) 06:34:33 145.795 - 145.815
LilacSat-2 21 Nov 06:32:13 06:34:20 14° 92° (E) 06:36:28 437.200
YUBILEINY 21 Nov 06:33:18 06:41:44 56° 90° (E) 06:50:15 435.215
KKS-1 21 Nov 06:41:11 06:45:02 28° 264° (W) 06:48:55 437.445
XW-2F 21 Nov 06:41:38 06:44:00 16° 93° (E) 06:46:23 145.980 - 146.000
HO-68 21 Nov 06:51:33 06:52:19 10° 86° (E) 06:53:04 435.675
STARS 21 Nov 07:06:10 07:10:17 37° 262° (W) 07:14:25 437.465
DOVE 4 21 Nov 07:07:57 07:12:53 45° 289° (WNW) 07:17:36 437.250
KAITUO 1B 21 Nov 07:09:31 07:12:44 26° 96° (E) 07:15:57 145.475/437.950
STRAND 1 21 Nov 07:18:08 07:22:36 31° 68° (ENE) 07:27:06 437.568
XW-2D 21 Nov 07:23:03 07:26:49 59° 100° (E) 07:30:35 145.860 - 145.880
RS-15 21 Nov 07:36:07 07:44:06 22° 261° (W) 07:51:52 29.354- 29.394
XW-2B 21 Nov 07:37:49 07:41:38 88° 91° (E) 07:45:28 145.730 - 145.750
SO-50 21 Nov 07:47:22 07:51:57 58° 55° (NE) 07:56:35 436.795
CUTE-I 21 Nov 07:48:46 07:54:09 76° 103° (ESE) 07:59:30 437.470
NUDT-PHONESAT 21 Nov 07:54:25 07:58:08 82° 283° (WNW) 08:01:50 437.300
CUTE 1.7 + AOD 2 21 Nov 07:59:40 08:03:34 33° 97° (E) 08:07:27 437.475
XW-2C 21 Nov 08:03:35 08:07:11 41° 287° (WNW) 08:10:47 145.795 - 145.815
LilacSat-2 21 Nov 08:05:11 08:08:44 37° 287° (WNW) 08:12:17 437.200
FO-29 21 Nov 08:14:14 08:20:01 32° 63° (ENE) 08:26:21 435.910
XW-2F 21 Nov 08:14:46 08:18:11 32° 288° (WNW) 08:21:36 145.980 - 146.000
UWE-3 21 Nov 08:14:47 08:17:11 15° 92° (E) 08:19:34 435.000/436.395/437.385
SEEDS 21 Nov 08:30:40 08:34:46 45° 99° (E) 08:38:51 437.485
YUBILEINY 21 Nov 08:31:20 08:38:54 32° 290° (WNW) 08:46:34 435.215
HO-68 21 Nov 08:34:00 08:41:12 71° 104° (ESE) 08:48:20 435.675
AAUSAT CUBESAT 2 21 Nov 08:38:57 08:42:21 24° 95° (E) 08:45:44 437.432
KAITUO 1B 21 Nov 08:43:46 08:46:32 20° 291° (WNW) 08:49:17 145.475/437.950
CUBEBUG 2 21 Nov 08:52:16 08:56:27 77° 101° (E) 09:00:34 437.445
AO-73 21 Nov 08:56:28 08:59:34 20° 94° (E) 09:02:40 145.935
STRAND 1 21 Nov 08:57:10 09:01:42 31° 264° (W) 09:06:16 437.568
Oscar 11 21 Nov 09:13:08 09:16:30 22° 94° (E) 09:19:51 .
XW-2A 21 Nov 09:21:18 09:24:40 83° 283° (WNW) 09:28:02 145.665 - 145.685
SO-50 21 Nov 09:29:09 09:31:58 16° 251° (WSW) 09:34:47 436.795
CUTE-I 21 Nov 09:30:37 09:33:32 15° 300° (WNW) 09:36:25 437.470
CUTE 1.7 + AOD 2 21 Nov 09:36:00 09:39:10 20° 292° (WNW) 09:42:19 437.475
ZACube-1 21 Nov 09:40:35 09:44:44 78° 103° (ESE) 09:48:53 437.345
UWE-3 21 Nov 09:49:56 09:53:50 41° 287° (WNW) 09:57:43 435.000/436.395/437.385
FO-29 21 Nov 09:58:24 10:04:40 49° 263° (W) 10:11:45 435.910
PRISM 21 Nov 09:58:40 10:00:46 14° 64° (ENE) 10:02:52 437.425
PCSat 21 Nov 09:59:26 10:04:15 31° 51° (NE) 10:09:01 145.827
SEEDS 21 Nov 10:07:33 10:10:03 15° 295° (WNW) 10:12:33 437.485
AAUSAT CUBESAT 2 21 Nov 10:14:12 10:17:44 27° 290° (WNW) 10:21:16 437.432
Max Valier Satellite 21 Nov 10:21:59 10:24:14 15° 93° (E) 10:26:29 145.860
EO-88 21 Nov 10:22:34 10:23:00 10° 91° (E) 10:23:26 145.990 - 145.960
HO-68 21 Nov 10:22:53 10:28:15 23° 302° (WNW) 10:33:37 435.675
UNISAT 6 21 Nov 10:28:10 10:32:45 86° 79° (E) 10:37:17 437.425
AO-73 21 Nov 10:32:11 10:35:50 30° 289° (WNW) 10:39:29 145.935
TIGRISAT 21 Nov 10:32:34 10:37:11 88° 70° (ENE) 10:41:41 435.000
DELFI C3 21 Nov 10:46:28 10:50:21 48° 99° (E) 10:54:13 145.870
Oscar 11 21 Nov 10:48:49 10:52:39 31° 290° (WNW) 10:56:28 .
FALCONSAT 3 21 Nov 10:49:18 10:51:51 18° 158° (SSE) 10:54:25 435.103
PRISM 21 Nov 11:31:34 11:35:34 50° 260° (W) 11:39:37 437.425
PCSat 21 Nov 11:42:42 11:47:40 38° 249° (WSW) 11:52:37 145.827
DUCHIFAT 1 21 Nov 11:48:30 11:51:26 19° 67° (ENE) 11:54:23 145.980
EO-88 21 Nov 11:53:21 11:56:53 46° 286° (WNW) 12:00:23 145.990 - 145.960
EO-79 21 Nov 11:54:50 11:58:28 28° 69° (ENE) 12:02:06 145.935-145.965
Max Valier Satellite 21 Nov 11:54:51 11:58:07 31° 288° (WNW) 12:01:22 145.860
NANOSAT C BR1 21 Nov 11:58:14 12:01:49 27° 69° (ENE) 12:05:23 145.865
AIST 2D 21 Nov 11:59:06 12:02:33 82° 262° (W) 12:06:02 435.315
ESTCUBE 1 21 Nov 11:59:43 12:02:46 18° 93° (E) 12:05:49 437.505/2401.250
POLYITAN 1 21 Nov 12:09:42 12:13:41 41° 72° (ENE) 12:17:40 437.675
BEESAT 2 21 Nov 12:15:55 12:17:08 11° 40° (NE) 12:18:20 435.950
LO-87 21 Nov 12:18:19 12:21:37 35° 98° (E) 12:24:51 145.935 - 145.965
DELFI C3 21 Nov 12:22:47 12:24:39 13° 295° (WNW) 12:26:31 145.870
FALCONSAT 3 21 Nov 12:27:03 12:30:27 36° 173° (S) 12:33:52 435.103
QB50P2 21 Nov 12:32:41 12:36:57 86° 74° (ENE) 12:41:12 145.880/145.840
BEESAT 3 21 Nov 12:40:19 12:44:12 52° 55° (NE) 12:47:59 437.485
BUGSAT 1 21 Nov 12:41:39 12:44:29 18° 66° (ENE) 12:47:18 437.445
Gurwin Techsat 1B 21 Nov 12:54:01 12:56:12 13° 59° (ENE) 12:58:23 435.225
AO-85 21 Nov 13:04:33 13:07:42 18° 44° (NE) 13:10:58 145.980
SPROUT 21 Nov 13:18:20 13:22:03 28° 96° (E) 13:25:42 437.525
DUCHIFAT 1 21 Nov 13:22:56 13:26:49 36° 262° (W) 13:30:44 145.980
EO-79 21 Nov 13:30:45 13:34:11 23° 265° (W) 13:37:37 145.935-145.965
NANOSAT C BR1 21 Nov 13:34:00 13:37:27 24° 265° (W) 13:40:55 145.865
ESTCUBE 1 21 Nov 13:35:28 13:39:44 42° 288° (WNW) 13:44:01 437.505/2401.250
AO-7 21 Nov 13:36:12 13:39:03 12° 44° (NE) 13:41:54 .
POLYITAN 1 21 Nov 13:46:58 13:49:37 16° 267° (W) 13:52:16 437.675
O/OREOS (USA 219) 21 Nov 13:49:04 13:52:30 21° 101° (E) 13:55:56 437.305
BEESAT 2 21 Nov 13:51:26 13:55:29 87° 61° (ENE) 13:59:27 435.950
LO-87 21 Nov 13:52:57 13:54:39 13° 294° (WNW) 13:56:23 145.935 - 145.965
VELOX 1 21 Nov 13:56:04 14:00:23 47° 100° (E) 14:04:39 145.980
M-CUBED/EXP-1 PRIME 21 Nov 13:56:29 13:57:58 12° 57° (ENE) 13:59:30 437.505
Oscar 19 21 Nov 14:05:17 14:10:23 78° 75° (ENE) 14:15:31 437.125/150
FALCONSAT 3 21 Nov 14:05:49 14:09:13 35° 188° (S) 14:12:37 435.103
50 SAT 21 Nov 14:08:49 14:09:57 11° 93° (E) 14:11:03 437.505
BUGSAT 1 21 Nov 14:15:38 14:19:32 38° 262° (W) 14:23:27 437.445
BEESAT 3 21 Nov 14:19:32 14:21:14 12° 251° (WSW) 14:22:54 437.485
Gurwin Techsat 1B 21 Nov 14:30:02 14:35:21 88° 256° (WSW) 14:40:43 435.225
DX 1 21 Nov 14:41:53 14:45:51 33° 97° (E) 14:49:47 434.975-435.025
AO-85 21 Nov 14:43:48 14:48:31 71° 240° (WSW) 14:53:35 145.980
SPROUT 21 Nov 14:54:24 14:57:46 23° 292° (WNW) 15:01:07 437.525
AO-7 21 Nov 15:21:59 15:29:58 55° 65° (ENE) 15:37:58 .
UKube-1 21 Nov 15:23:43 15:28:01 60° 101° (E) 15:32:16 .
O/OREOS (USA 219) 21 Nov 15:27:22 15:31:38 37° 298° (WNW) 15:35:55 437.305
M-CUBED/EXP-1 PRIME 21 Nov 15:28:27 15:31:52 48° 256° (WSW) 15:35:33 437.505
VELOX 1 21 Nov 15:33:38 15:36:24 16° 296° (WNW) 15:39:11 145.980
50 SAT 21 Nov 15:39:15 15:42:08 31° 288° (WNW) 15:45:00 437.505
FALCONSAT 3 21 Nov 15:45:24 15:47:48 16° 203° (SSW) 15:50:11 435.103
Oscar 19 21 Nov 15:48:33 15:50:15 12° 271° (W) 15:51:57 437.125/150
ITAMSAT 1 21 Nov 15:57:45 16:02:49 53° 71° (ENE) 16:07:55 435.822/435.867
DX 1 21 Nov 16:18:26 16:21:49 22° 293° (WNW) 16:25:11 434.975-435.025
BEESAT 21 Nov 16:19:24 16:23:39 32° 97° (E) 16:27:53 436.000
ITUPSAT 1 21 Nov 16:28:59 16:33:26 39° 98° (E) 16:37:53 437.325
NO-84 21 Nov 16:31:41 16:35:18 87° 309° (NW) 16:39:17 435.350 FM
DOVE 4 21 Nov 16:35:39 16:39:20 21° 64° (ENE) 16:43:09 437.250
MOZHAYETS 4 21 Nov 16:40:46 16:45:20 75° 102° (ESE) 16:49:53
YUBILEINY 21 Nov 16:44:37 16:51:49 27° 67° (ENE) 16:58:56 435.215
CUBESAT XI-V 21 Nov 16:53:03 16:56:47 23° 94° (E) 17:00:29 437.345
UKube-1 21 Nov 17:01:32 17:03:30 13° 297° (WNW) 17:05:28 .
AO-7 21 Nov 17:15:45 17:22:58 33° 263° (W) 17:30:17 .
CUTE-I 21 Nov 17:32:51 17:35:55 16° 61° (ENE) 17:39:00 437.470
ITAMSAT 1 21 Nov 17:39:02 17:42:34 18° 267° (W) 17:46:08 435.822/435.867
RS-15 21 Nov 17:39:19 17:44:01 13° 94° (E) 17:48:41 29.354- 29.394
KAITUO 1B 21 Nov 17:50:26 17:51:51 12° 65° (ENE) 17:53:17 145.475/437.950
BEESAT 21 Nov 17:57:21 18:01:16 26° 293° (WNW) 18:05:11 436.000
XW-2D 21 Nov 18:03:51 18:06:57 25° 70° (ENE) 18:10:04 145.860 - 145.880
ITUPSAT 1 21 Nov 18:07:23 18:11:00 22° 295° (WNW) 18:14:36 437.325
NO-84 21 Nov 18:10:27 18:13:12 18° 337° (NNW) 18:16:05 435.350 FM
DOVE 4 21 Nov 18:11:44 18:16:34 49° 262° (W) 18:21:39 437.250
XW-2B 21 Nov 18:18:18 18:21:43 36° 72° (ENE) 18:25:10 145.730 - 145.750
MOZHAYETS 4 21 Nov 18:20:21 18:21:51 11° 298° (WNW) 18:23:20
CUBESAT XI-V 21 Nov 18:29:56 18:34:11 35° 290° (WNW) 18:38:26 437.345
KKS-1 21 Nov 18:31:46 18:36:10 55° 101° (E) 18:40:31 437.445
NUDT-PHONESAT 21 Nov 18:32:35 18:35:56 36° 73° (ENE) 18:39:19 437.300
YUBILEINY 21 Nov 18:40:32 18:49:17 67° 268° (W) 18:57:59 435.215
XW-2C 21 Nov 18:43:34 18:47:17 81° 77° (ENE) 18:51:02 145.795 - 145.815
LilacSat-2 21 Nov 18:45:45 18:49:29 87° 257° (WSW) 18:53:16 437.200
CUTE 1.7 + AOD 2 21 Nov 18:52:03 18:55:18 22° 68° (ENE) 18:58:35 437.475
XW-2F 21 Nov 18:54:07 18:57:49 80° 256° (WSW) 19:01:33 145.980 - 146.000
STARS 21 Nov 18:55:40 18:59:47 38° 98° (E) 19:03:51 437.465
HO-68 21 Nov 19:01:42 19:08:32 49° 67° (ENE) 19:15:24 435.675
CUTE-I 21 Nov 19:09:59 19:15:19 72° 257° (WSW) 19:20:43 437.470
UWE-3 21 Nov 19:11:49 19:13:53 13° 65° (ENE) 19:15:57 435.000/436.395/437.385
SEEDS 21 Nov 19:21:46 19:25:21 28° 70° (ENE) 19:28:57 437.485
KAITUO 1B 21 Nov 19:21:53 19:25:24 44° 261° (W) 19:28:57 145.475/437.950
AAUSAT CUBESAT 2 21 Nov 19:29:15 19:31:39 15° 65° (ENE) 19:34:03 437.432
XW-2D 21 Nov 19:38:18 19:41:04 20° 266° (W) 19:43:52 145.860 - 145.880
RS-15 21 Nov 19:41:55 19:53:57 65° 114° (ESE) 20:06:00 29.354- 29.394
CUBEBUG 2 21 Nov 19:49:00 19:53:31 59° 75° (ENE) 19:57:55 437.445
NO-84 21 Nov 19:51:24 19:51:59 10° 358° (N) 19:52:35 435.350 FM
XW-2A 21 Nov 19:51:52 19:54:39 25° 72° (ENE) 19:57:27 145.665 - 145.685
AO-73 21 Nov 19:51:57 19:54:33 16° 66° (ENE) 19:57:09 145.935
XW-2B 21 Nov 19:54:02 19:56:01 14° 268° (W) 19:58:00 145.730 - 145.750
Oscar 11 21 Nov 20:08:02 20:10:41 16° 66° (ENE) 20:13:22 .
NUDT-PHONESAT 21 Nov 20:08:13 20:09:56 13° 268° (W) 20:11:40 437.300
KKS-1 21 Nov 20:09:47 20:12:14 15° 297° (WNW) 20:14:41 437.445
CUTE 1.7 + AOD 2 21 Nov 20:27:19 20:30:58 29° 264° (W) 20:34:40 437.475
STARS 21 Nov 20:32:43 20:35:49 19° 294° (WNW) 20:38:56 437.465
ZACube-1 21 Nov 20:35:19 20:39:33 54° 74° (ENE) 20:43:42 437.345
YUBILEINY 21 Nov 20:42:12 20:44:14 11° 287° (WNW) 20:46:17 435.215
UWE-3 21 Nov 20:45:28 20:49:52 59° 259° (W) 20:54:12 435.000/436.395/437.385
HO-68 21 Nov 20:50:11 20:56:26 32° 264° (W) 21:02:42 435.675
SEEDS 21 Nov 20:57:44 21:01:00 22° 266° (W) 21:04:17 437.485
AAUSAT CUBESAT 2 21 Nov 21:02:46 21:06:42 43° 262° (W) 21:10:41 437.432
ISS 21 Nov 21:05:23 21:07:34 17° 131° (SE) 21:09:44 437.550
STRAND 1 21 Nov 21:07:22 21:12:31 88° 289° (WNW) 21:17:37 437.568
FO-29 21 Nov 21:08:36 21:15:26 32° 92° (E) 21:21:52 435.910
XW-2A 21 Nov 21:25:25 21:27:22 15° 266° (W) 21:29:20 145.665 - 145.685
AO-73 21 Nov 21:26:19 21:30:26 44° 261° (W) 21:34:30 145.935
NO-84 21 Nov 21:28:20 21:30:52 15° 19° (NNE) 21:33:26 435.350 FM
CUBEBUG 2 21 Nov 21:28:22 21:30:25 13° 269° (W) 21:32:28 437.445
DELFI C3 21 Nov 21:31:10 21:34:26 25° 70° (ENE) 21:37:44 145.870
Oscar 11 21 Nov 21:42:22 21:46:28 44° 262° (W) 21:50:35 .
nSIGHT-1 21 Nov 21:55:22 21:58:33 71° 142° (SE) 22:01:45 .
RS-15 21 Nov 21:55:32 22:07:08 44° 318° (NW) 22:18:38 29.354- 29.394
SO-50 21 Nov 22:02:13 22:05:27 20° 111° (ESE) 22:08:42 436.795
ZACube-1 21 Nov 22:14:18 22:16:06 12° 269° (W) 22:17:54 437.345
UNISAT 6 21 Nov 22:21:25 22:24:17 17° 93° (E) 22:27:08 437.425
TIGRISAT 21 Nov 22:25:39 22:28:32 18° 93° (E) 22:31:24 435.000
EO-88 21 Nov 22:29:42 22:33:16 60° 75° (ENE) 22:36:51 145.990 - 145.960
Max Valier Satellite 21 Nov 22:32:08 22:35:47 83° 258° (WSW) 22:39:27 145.860
ISS 21 Nov 22:40:33 22:43:45 51° 326° (NNW) 22:46:58 437.550
STRAND 1 21 Nov 22:49:28 22:50:53 11° 301° (WNW) 22:52:18 437.568
FO-29 21 Nov 22:53:04 23:00:40 54° 291° (WNW) 23:07:48 435.910
LO-87 21 Nov 22:54:38 22:56:38 14° 67° (ENE) 22:58:38 145.935 - 145.965
ESTCUBE 1 21 Nov 22:59:13 23:01:54 16° 64° (ENE) 23:04:36 437.505/2401.250
NO-84 21 Nov 23:04:52 23:09:02 52° 38° (NE) 23:13:12 435.350 FM
DELFI C3 21 Nov 23:05:56 23:09:06 23° 265° (W) 23:12:19 145.870
PRISM 21 Nov 23:13:42 23:16:57 22° 95° (E) 23:20:10 437.425
nSIGHT-1 21 Nov 23:32:38 23:35:04 19° 338° (NNW) 23:37:31 .
